timestamp,wind_dir_avg,wind_spd_avg,wind_spd_max_dir,wind_spd_gust,battery_voltage,lat,long
2023-12-01 00:04:00+00:00,260.0,4.15,258.0,4.64,12.41,47.59359,-54.27349
2023-12-01 00:14:00+00:00,255.0,4.49,256.0,7.32,12.41,47.59359,-54.27349
2023-12-01 00:24:00+00:00,251.0,4.15,249.0,4.62,12.41,47.59359,-54.27349
2023-12-01 00:34:00+00:00,264.0,7.43,265.0,9.97,12.41,47.59359,-54.27349
2023-12-01 00:44:00+00:00,265.0,4.83,265.0,7.72,12.41,47.59359,-54.27349
2023-12-01 00:54:00+00:00,253.0,5.52,257.0,8.46,12.41,47.59359,-54.27349
2023-12-01 01:04:00+00:00,262.0,4.76,267.0,8.04,12.41,47.59359,-54.27349
2023-12-01 01:14:00+00:00,267.0,4.18,261.0,4.67,12.41,47.59359,-54.27349
2023-12-01 01:24:00+00:00,270.0,5.21,271.0,8.85,12.41,47.59359,-54.27349
2023-12-01 01:34:00+00:00,270.0,5.14,270.0,8.56,12.41,47.59359,-54.27349
2023-12-01 01:44:00+00:00,271.0,4.19,280.0,4.94,12.41,47.59359,-54.27349
2023-12-01 01:54:00+00:00,271.0,6.74,270.0,9.37,12.41,47.59359,-54.27349
2023-12-01 02:04:00+00:00,272.0,6.05,272.0,8.35,12.41,47.59359,-54.27349
2023-12-01 02:14:00+00:00,269.0,4.43,268.0,6.13,12.41,47.59359,-54.27349
2023-12-01 02:24:00+00:00,258.0,4.34,263.0,5.49,12.41,47.59359,-54.27349
2023-12-01 02:34:00+00:00,265.0,4.54,263.0,7.26,12.41,47.59359,-54.27349
2023-12-01 02:44:00+00:00,283.0,4.13,282.0,4.61,12.41,47.59359,-54.27349
2023-12-01 02:54:00+00:00,276.0,4.17,276.0,5.05,12.41,47.59359,-54.27349
2023-12-01 03:04:00+00:00,282.0,4.45,281.0,4.91,12.41,47.59359,-54.27349
2023-12-01 03:14:00+00:00,275.0,6.75,275.0,9.4,12.41,47.59359,-54.27349
2023-12-01 03:24:00+00:00,266.0,5.86,268.0,9.14,12.41,47.59359,-54.27349
2023-12-01 03:34:00+00:00,268.0,3.69,273.0,4.11,12.41,47.59359,-54.27349
2023-12-01 03:44:00+00:00,269.0,3.94,269.0,4.37,12.41,47.59359,-54.27349
2023-12-01 03:54:00+00:00,258.0,8.05,257.0,10.46,12.41,47.59359,-54.27349
2023-12-01 04:04:00+00:00,266.0,9.59,266.0,10.23,12.41,47.59359,-54.27349
2023-12-01 04:14:00+00:00,258.0,7.88,260.0,10.17,12.33,47.59359,-54.27349
2023-12-01 04:24:00+00:00,258.0,8.5,266.0,10.33,12.33,47.59359,-54.27349
2023-12-01 04:34:00+00:00,266.0,9.37,267.0,10.36,12.33,47.59359,-54.27349
2023-12-01 04:44:00+00:00,269.0,8.7,271.0,10.28,12.33,47.59359,-54.27349
2023-12-01 04:54:00+00:00,271.0,6.3,276.0,9.62,12.33,47.59359,-54.27349
2023-12-01 05:04:00+00:00,254.0,7.94,256.0,10.47,12.33,47.59359,-54.27349
2023-12-01 05:14:00+00:00,270.0,6.98,272.0,10.02,12.33,47.59359,-54.27349
2023-12-01 05:24:00+00:00,271.0,5.71,272.0,8.37,12.33,47.59359,-54.27349
2023-12-01 05:34:00+00:00,266.0,7.98,266.0,10.1,12.33,47.59359,-54.27349
2023-12-01 05:44:00+00:00,268.0,8.76,266.0,10.2,12.33,47.59359,-54.27349
2023-12-01 05:54:00+00:00,277.0,8.84,283.0,10.49,12.33,47.59359,-54.27349
2023-12-01 06:04:00+00:00,270.0,9.26,269.0,10.3,12.33,47.59359,-54.27349
2023-12-01 06:14:00+00:00,263.0,9.71,267.0,10.39,12.33,47.59359,-54.27349
2023-12-01 06:24:00+00:00,265.0,8.66,274.0,10.39,12.33,47.59359,-54.27349
2023-12-01 06:34:00+00:00,244.0,8.48,250.0,10.01,12.33,47.59359,-54.27349
2023-12-01 06:44:00+00:00,254.0,9.52,253.0,10.7,12.33,47.59359,-54.27349
2023-12-01 06:54:00+00:00,255.0,9.13,247.0,10.65,12.33,47.59359,-54.27349
2023-12-01 07:04:00+00:00,256.0,8.97,255.0,10.36,12.33,47.59359,-54.27349
2023-12-01 07:14:00+00:00,236.0,6.2,246.0,9.67,12.33,47.59359,-54.27349
2023-12-01 07:24:00+00:00,247.0,10.02,246.0,10.69,12.33,47.59359,-54.27349
2023-12-01 07:34:00+00:00,230.0,6.79,238.0,10.16,12.33,47.59359,-54.27349
2023-12-01 07:44:00+00:00,230.0,5.33,228.0,6.14,12.33,47.59359,-54.27349
2023-12-01 07:54:00+00:00,244.0,6.62,256.0,9.89,12.33,47.59359,-54.27349
2023-12-01 08:04:00+00:00,253.0,5.33,254.0,9.05,12.33,47.59359,-54.27349
2023-12-01 08:14:00+00:00,268.0,9.79,267.0,10.33,12.33,47.59359,-54.27349
2023-12-01 08:24:00+00:00,265.0,9.18,267.0,10.24,12.33,47.59359,-54.27349
2023-12-01 08:34:00+00:00,255.0,6.31,253.0,9.63,12.33,47.59359,-54.27349
2023-12-01 08:44:00+00:00,268.0,9.46,270.0,10.48,12.33,47.59359,-54.27349
2023-12-01 08:54:00+00:00,264.0,9.0,266.0,10.45,12.33,47.59359,-54.27349
2023-12-01 09:04:00+00:00,258.0,5.53,263.0,9.93,12.33,47.59359,-54.27349
2023-12-01 09:14:00+00:00,264.0,9.92,264.0,10.35,12.33,47.59359,-54.27349
2023-12-01 09:24:00+00:00,243.0,5.25,255.0,7.32,12.33,47.59359,-54.27349
2023-12-01 09:34:00+00:00,234.0,4.98,229.0,5.67,12.33,47.59359,-54.27349
2023-12-01 09:44:00+00:00,239.0,5.53,253.0,8.72,12.33,47.59359,-54.27349
2023-12-01 09:54:00+00:00,234.0,4.95,229.0,5.9,12.33,47.59359,-54.27349
2023-12-01 10:04:00+00:00,231.0,5.03,233.0,6.8,12.33,47.59359,-54.27349
2023-12-01 10:14:00+00:00,229.0,4.51,218.0,5.16,12.25,47.59359,-54.27349
2023-12-01 10:24:00+00:00,215.0,5.16,213.0,5.75,12.25,47.59359,-54.27349
2023-12-01 10:34:00+00:00,214.0,5.55,211.0,6.62,12.25,47.59359,-54.27349
2023-12-01 10:44:00+00:00,207.0,4.85,209.0,5.48,12.25,47.59359,-54.27349
2023-12-01 10:54:00+00:00,216.0,5.69,211.0,6.39,12.25,47.59359,-54.27349
2023-12-01 11:04:00+00:00,219.0,5.7,213.0,6.74,12.25,47.59359,-54.27349
2023-12-01 11:14:00+00:00,219.0,5.53,218.0,6.26,12.33,47.59359,-54.27349
2023-12-01 11:24:00+00:00,208.0,6.09,210.0,7.41,12.33,47.59359,-54.27349
2023-12-01 11:34:00+00:00,189.0,5.93,190.0,7.2,12.33,47.59359,-54.27349
2023-12-01 11:44:00+00:00,180.0,6.26,178.0,7.33,12.33,47.59359,-54.27349
2023-12-01 11:54:00+00:00,188.0,6.49,187.0,7.64,12.33,47.59359,-54.27349
2023-12-01 12:04:00+00:00,177.0,6.47,174.0,7.69,12.33,47.59359,-54.27349
2023-12-01 12:14:00+00:00,167.0,6.15,169.0,6.93,14.24,47.59359,-54.27349
2023-12-01 12:24:00+00:00,168.0,5.94,169.0,6.81,14.24,47.59359,-54.27349
2023-12-01 12:34:00+00:00,179.0,6.67,180.0,7.02,14.24,47.59359,-54.27349
2023-12-01 12:44:00+00:00,175.0,6.39,177.0,7.03,14.24,47.59359,-54.27349
2023-12-01 12:54:00+00:00,189.0,8.17,189.0,9.18,14.24,47.59359,-54.27349
2023-12-01 13:04:00+00:00,198.0,8.45,198.0,9.13,14.24,47.59359,-54.27349
2023-12-01 13:14:00+00:00,200.0,9.61,201.0,10.72,13.68,47.59359,-54.27349
2023-12-01 13:24:00+00:00,196.0,9.42,196.0,11.04,13.68,47.59359,-54.27349
2023-12-01 13:34:00+00:00,189.0,9.08,186.0,10.36,13.68,47.59359,-54.27349
2023-12-01 13:44:00+00:00,190.0,9.54,197.0,11.4,13.68,47.59359,-54.27349
2023-12-01 13:54:00+00:00,190.0,9.36,189.0,10.46,13.68,47.59359,-54.27349
2023-12-01 14:04:00+00:00,185.0,8.37,189.0,9.71,13.68,47.59359,-54.27349
2023-12-01 14:14:00+00:00,183.0,7.82,185.0,8.62,14.32,47.59359,-54.27349
2023-12-01 14:24:00+00:00,190.0,9.08,193.0,9.87,14.32,47.59359,-54.27349
2023-12-01 14:34:00+00:00,189.0,7.97,188.0,8.86,14.32,47.59359,-54.27349
2023-12-01 14:44:00+00:00,197.0,8.06,196.0,9.32,14.32,47.59359,-54.27349
2023-12-01 14:54:00+00:00,199.0,8.61,192.0,9.88,14.32,47.59359,-54.27349
2023-12-01 15:04:00+00:00,196.0,9.21,198.0,10.08,14.32,47.59359,-54.27349
2023-12-01 15:14:00+00:00,197.0,8.57,198.0,9.48,13.29,47.59359,-54.27349
2023-12-01 15:24:00+00:00,193.0,9.19,196.0,11.11,13.29,47.59359,-54.27349
2023-12-01 15:34:00+00:00,198.0,10.25,197.0,12.45,13.29,47.59359,-54.27349
2023-12-01 15:44:00+00:00,192.0,9.29,191.0,10.45,13.29,47.59359,-54.27349
2023-12-01 15:54:00+00:00,200.0,10.72,196.0,12.11,13.29,47.59359,-54.27349
2023-12-01 16:04:00+00:00,193.0,10.14,188.0,12.17,13.29,47.59359,-54.27349
2023-12-01 16:14:00+00:00,193.0,10.74,194.0,12.21,13.84,47.59359,-54.27349
2023-12-01 16:24:00+00:00,196.0,10.95,197.0,11.88,13.84,47.59359,-54.27349
2023-12-01 16:34:00+00:00,196.0,11.17,195.0,13.68,13.84,47.59359,-54.27349
2023-12-01 16:44:00+00:00,191.0,9.1,187.0,12.01,13.84,47.59359,-54.27349
2023-12-01 16:54:00+00:00,196.0,10.91,198.0,12.58,13.84,47.59359,-54.27349
2023-12-01 17:04:00+00:00,196.0,10.9,199.0,12.4,13.84,47.59359,-54.27349
2023-12-01 17:14:00+00:00,185.0,8.98,183.0,10.43,13.53,47.59359,-54.27349
2023-12-01 17:24:00+00:00,185.0,8.82,184.0,9.84,13.53,47.59359,-54.27349
2023-12-01 17:34:00+00:00,183.0,9.45,185.0,10.36,13.53,47.59359,-54.27349
2023-12-01 17:44:00+00:00,184.0,8.74,185.0,10.01,13.53,47.59359,-54.27349
2023-12-01 17:54:00+00:00,186.0,9.96,194.0,11.44,13.53,47.59359,-54.27349
2023-12-01 18:04:00+00:00,182.0,10.01,184.0,10.57,13.53,47.59359,-54.27349
2023-12-01 18:14:00+00:00,186.0,11.35,187.0,12.83,13.21,47.59359,-54.27349
2023-12-01 18:24:00+00:00,193.0,11.48,202.0,13.29,13.21,47.59359,-54.27349
2023-12-01 18:34:00+00:00,193.0,11.89,192.0,13.65,13.21,47.59359,-54.27349
2023-12-01 18:44:00+00:00,192.0,13.85,193.0,15.6,13.21,47.59359,-54.27349
2023-12-01 18:54:00+00:00,192.0,11.62,192.0,14.18,13.21,47.59359,-54.27349
2023-12-01 19:04:00+00:00,190.0,11.92,190.0,14.66,13.21,47.59359,-54.27349
2023-12-01 19:14:00+00:00,190.0,11.62,192.0,13.0,13.21,47.59359,-54.27349
2023-12-01 19:24:00+00:00,192.0,13.09,194.0,15.46,13.21,47.59359,-54.27349
2023-12-01 19:34:00+00:00,205.0,13.27,208.0,15.3,13.21,47.59359,-54.27349
2023-12-01 19:44:00+00:00,206.0,14.63,213.0,17.07,13.21,47.59359,-54.27349
2023-12-01 19:54:00+00:00,205.0,16.07,211.0,17.65,13.21,47.59359,-54.27349
2023-12-01 20:04:00+00:00,206.0,14.6,214.0,16.53,13.21,47.59359,-54.27349
2023-12-01 20:14:00+00:00,203.0,15.75,205.0,17.24,12.65,47.59359,-54.27349
2023-12-01 20:24:00+00:00,204.0,15.07,205.0,17.22,12.65,47.59359,-54.27349
2023-12-01 20:34:00+00:00,201.0,13.85,203.0,16.6,12.65,47.59359,-54.27349
2023-12-01 20:44:00+00:00,205.0,14.87,211.0,17.21,12.65,47.59359,-54.27349
2023-12-01 20:54:00+00:00,207.0,14.25,208.0,16.84,12.65,47.59359,-54.27349
2023-12-01 21:04:00+00:00,204.0,14.59,205.0,16.96,12.65,47.59359,-54.27349
2023-12-01 21:14:00+00:00,205.0,13.99,205.0,16.44,12.49,47.59359,-54.27349
2023-12-01 21:24:00+00:00,207.0,13.83,206.0,16.23,12.49,47.59359,-54.27349
2023-12-01 21:34:00+00:00,205.0,11.55,209.0,12.9,12.49,47.59359,-54.27349
2023-12-01 21:44:00+00:00,202.0,14.27,205.0,15.91,12.49,47.59359,-54.27349
2023-12-01 21:54:00+00:00,204.0,13.39,202.0,14.94,12.49,47.59359,-54.27349
2023-12-01 22:04:00+00:00,206.0,12.51,207.0,15.39,12.49,47.59359,-54.27349
2023-12-01 22:14:00+00:00,206.0,13.44,205.0,16.18,12.49,47.59359,-54.27349
2023-12-01 22:24:00+00:00,207.0,13.13,209.0,14.88,12.49,47.59359,-54.27349
2023-12-01 22:34:00+00:00,215.0,13.44,217.0,15.59,12.49,47.59359,-54.27349
2023-12-01 22:44:00+00:00,214.0,13.61,212.0,15.73,12.49,47.59359,-54.27349
2023-12-01 22:54:00+00:00,210.0,12.31,208.0,14.63,12.49,47.59359,-54.27349
2023-12-01 23:04:00+00:00,208.0,12.85,212.0,14.55,12.49,47.59359,-54.27349
2023-12-01 23:14:00+00:00,212.0,11.81,213.0,14.0,12.41,47.59359,-54.27349
2023-12-01 23:24:00+00:00,216.0,11.27,213.0,12.56,12.41,47.59359,-54.27349
2023-12-01 23:34:00+00:00,214.0,12.35,211.0,14.0,12.41,47.59359,-54.27349
2023-12-01 23:44:00+00:00,216.0,12.87,211.0,15.97,12.41,47.59359,-54.27349
2023-12-01 23:54:00+00:00,217.0,11.87,226.0,17.75,12.41,47.59359,-54.27349
